When you browse on this site, cookies collect data to enhance your experience and personalize the content and advertising you see.
Visit our Privacy Policy to learn more. By continuing to use the site, you agree to this use of cookies and data.
  • In Netherlands
  • List of Countries
  • For 7 days
  • Water Temperature
  • Weather Map
  • Weather Widgets
  • user-avatar
    Login

    Hourly Weather Tarin Kowt

    Today, 19 September, Thursday

    Time Temperature Precipitation Wind Pressure Humidity
    00:00 +15°C° 0 mm 1 mps 617 mmHg 12%
    01:00 +15°C° 0 mm 1 mps 616 mmHg 12%
    02:00 +15°C° 0 mm 1 mps 616 mmHg 15%
    03:00 +14°C° 0 mm 1 mps 616 mmHg 17%
    04:00 +14°C° 0 mm 1 mps 616 mmHg 17%
    05:00 +17°C° 0 mm 2 mps 618 mmHg 14%
    06:00 +19°C° 0 mm 2 mps 619 mmHg 11%
    07:00 +21°C° 0 mm 2 mps 620 mmHg 8%
    08:00 +25°C° 0 mm 2 mps 621 mmHg 7%
    09:00 +27°C° 0 mm 2 mps 621 mmHg 6%
    10:00 +29°C° 0 mm 2 mps 622 mmHg 5%
    11:00 +30°C° 0 mm 1 mps 621 mmHg 4%
    12:00 +31°C° 0 mm 1 mps 621 mmHg 4%
    13:00 +32°C° 0 mm 1 mps 621 mmHg 3%
    14:00 +34°C° 0 mm 2 mps 621 mmHg 3%
    15:00 +34°C° 0 mm 2 mps 621 mmHg 3%
    16:00 +34°C° 0 mm 3 mps 620 mmHg 3%
    17:00 +29°C° 0 mm 2 mps 619 mmHg 4%
    18:00 +25°C° 0 mm 2 mps 618 mmHg 5%
    19:00 +21°C° 0 mm 2 mps 617 mmHg 6%
    20:00 +19°C° 0 mm 2 mps 617 mmHg 6%
    21:00 +19°C° 0 mm 1 mps 617 mmHg 7%
    22:00 +18°C° 0 mm 1 mps 616 mmHg 8%
    23:00 +18°C° 0 mm 1 mps 616 mmHg 8%

    Tomorrow, 20 September, Friday

    Time Temperature Precipitation Wind Pressure Humidity
    00:00 +16°C° 0 mm 1 mps 616 mmHg 9%
    01:00 +16°C° 0 mm 1 mps 616 mmHg 9%
    02:00 +16°C° 0 mm 1 mps 616 mmHg 10%
    03:00 +15°C° 0 mm 1 mps 616 mmHg 11%
    04:00 +15°C° 0 mm 1 mps 616 mmHg 11%
    05:00 +17°C° 0 mm 2 mps 617 mmHg 10%
    06:00 +20°C° 0 mm 2 mps 618 mmHg 9%
    07:00 +23°C° 0 mm 2 mps 619 mmHg 8%
    08:00 +25°C° 0 mm 2 mps 620 mmHg 8%
    09:00 +27°C° 0 mm 2 mps 620 mmHg 7%
    10:00 +29°C° 0 mm 1 mps 621 mmHg 6%
    11:00 +30°C° 0 mm 2 mps 621 mmHg 6%
    12:00 +31°C° 0 mm 2 mps 620 mmHg 5%
    13:00 +32°C° 0 mm 2 mps 620 mmHg 5%
    14:00 +32°C° 0 mm 2 mps 620 mmHg 5%
    15:00 +33°C° 0 mm 3 mps 619 mmHg 5%
    16:00 +33°C° 0 mm 3 mps 619 mmHg 5%
    17:00 +28°C° 0 mm 3 mps 618 mmHg 6%
    18:00 +25°C° 0 mm 2 mps 617 mmHg 8%
    19:00 +21°C° 0 mm 1 mps 616 mmHg 9%
    20:00 +20°C° 0 mm 1 mps 616 mmHg 9%
    21:00 +20°C° 0 mm 1 mps 616 mmHg 10%
    22:00 +19°C° 0 mm 1 mps 616 mmHg 10%
    23:00 +18°C° 0 mm 1 mps 616 mmHg 11%

    Day after tomorrow, 21 September, Saturday

    Time Temperature Precipitation Wind Pressure Humidity
    00:00 +18°C° 0 mm 1 mps 615 mmHg 11%
    01:00 +18°C° 0 mm 1 mps 615 mmHg 12%
    02:00 +16°C° 0 mm 1 mps 615 mmHg 13%
    03:00 +16°C° 0 mm 1 mps 615 mmHg 14%
    04:00 +15°C° 0 mm 2 mps 615 mmHg 15%
    05:00 +18°C° 0 mm 2 mps 616 mmHg 14%
    06:00 +20°C° 0 mm 2 mps 617 mmHg 12%
    07:00 +23°C° 0 mm 2 mps 619 mmHg 11%
    08:00 +25°C° 0 mm 2 mps 619 mmHg 10%
    09:00 +27°C° 0 mm 1 mps 620 mmHg 9%
    10:00 +30°C° 0 mm 1 mps 620 mmHg 8%
    11:00 +31°C° 0 mm 2 mps 620 mmHg 7%
    12:00 +33°C° 0 mm 3 mps 620 mmHg 6%
    13:00 +34°C° 0 mm 3 mps 620 mmHg 6%
    14:00 +34°C° 0 mm 4 mps 620 mmHg 6%
    15:00 +34°C° 0 mm 4 mps 619 mmHg 5%
    16:00 +34°C° 0 mm 4 mps 619 mmHg 5%
    17:00 +29°C° 0 mm 3 mps 618 mmHg 7%
    18:00 +26°C° 0 mm 3 mps 617 mmHg 9%
    19:00 +21°C° 0 mm 2 mps 616 mmHg 11%
    20:00 +20°C° 0 mm 2 mps 616 mmHg 12%
    21:00 +20°C° 0 mm 1 mps 616 mmHg 12%
    22:00 +20°C° 0 mm 1 mps 616 mmHg 13%
    23:00 +19°C° 0 mm 1 mps 616 mmHg 14%

    22 September, Sunday

    Time Temperature Precipitation Wind Pressure Humidity
    00:00 +18°C° 0 mm 1 mps 615 mmHg 14%
    01:00 +18°C° 0 mm 1 mps 615 mmHg 15%
    02:00 +18°C° 0 mm 1 mps 615 mmHg 15%
    03:00 +16°C° 0 mm 1 mps 615 mmHg 15%
    04:00 +16°C° 0 mm 1 mps 615 mmHg 16%
    05:00 +20°C° 0 mm 1 mps 616 mmHg 14%
    06:00 +22°C° 0 mm 1 mps 618 mmHg 12%
    07:00 +25°C° 0 mm 1 mps 620 mmHg 10%
    08:00 +27°C° 0 mm 1 mps 620 mmHg 8%
    09:00 +29°C° 0 mm 1 mps 621 mmHg 7%
    10:00 +31°C° 0 mm 2 mps 621 mmHg 6%
    11:00 +32°C° 0 mm 2 mps 621 mmHg 6%
    12:00 +34°C° 0 mm 3 mps 621 mmHg 5%
    13:00 +35°C° 0 mm 3 mps 620 mmHg 5%
    14:00 +35°C° 0 mm 4 mps 620 mmHg 5%
    15:00 +35°C° 0 mm 4 mps 620 mmHg 5%
    16:00 +35°C° 0 mm 4 mps 620 mmHg 5%
    17:00 +30°C° 0 mm 4 mps 619 mmHg 7%
    18:00 +27°C° 0 mm 3 mps 618 mmHg 8%
    19:00 +24°C° 0 mm 2 mps 617 mmHg 10%
    20:00 +21°C° 0 mm 2 mps 617 mmHg 11%
    21:00 +21°C° 0 mm 1 mps 617 mmHg 12%
    22:00 +20°C° 0 mm 1 mps 617 mmHg 13%
    23:00 +19°C° 0 mm 1 mps 617 mmHg 13%

    23 September, Monday

    Time Temperature Precipitation Wind Pressure Humidity
    00:00 +19°C° 0 mm 1 mps 616 mmHg 13%
    01:00 +19°C° 0 mm 1 mps 616 mmHg 13%
    02:00 +18°C° 0 mm 1 mps 616 mmHg 15%
    03:00 +18°C° 0 mm 1 mps 616 mmHg 16%
    04:00 +16°C° 0 mm 2 mps 616 mmHg 17%
    05:00 +18°C° 0 mm 2 mps 617 mmHg 15%
    06:00 +21°C° 0 mm 2 mps 618 mmHg 13%
    07:00 +24°C° 0 mm 2 mps 620 mmHg 11%
    08:00 +26°C° 0 mm 2 mps 620 mmHg 9%
    09:00 +28°C° 0 mm 1 mps 621 mmHg 8%
    10:00 +31°C° 0 mm 1 mps 622 mmHg 6%
    11:00 +32°C° 0 mm 2 mps 621 mmHg 6%
    12:00 +34°C° 0 mm 2 mps 621 mmHg 5%
    13:00 +35°C° 0 mm 3 mps 621 mmHg 5%
    14:00 +35°C° 0 mm 4 mps 621 mmHg 5%
    15:00 +35°C° 0 mm 4 mps 620 mmHg 5%
    16:00 +34°C° 0 mm 5 mps 620 mmHg 5%
    17:00 +30°C° 0 mm 4 mps 619 mmHg 7%
    18:00 +27°C° 0 mm 4 mps 619 mmHg 9%
    19:00 +24°C° 0 mm 3 mps 618 mmHg 11%
    20:00 +21°C° 0 mm 2 mps 618 mmHg 13%
    21:00 +20°C° 0 mm 2 mps 617 mmHg 16%
    22:00 +20°C° 0 mm 1 mps 617 mmHg 18%
    23:00 +19°C° 0 mm 1 mps 617 mmHg 18%

    24 September, Tuesday

    Time Temperature Precipitation Wind Pressure Humidity
    00:00 +19°C° 0 mm 1 mps 617 mmHg 19%
    01:00 +18°C° 0 mm 1 mps 616 mmHg 19%
    02:00 +18°C° 0 mm 1 mps 616 mmHg 19%
    03:00 +18°C° 0 mm 1 mps 616 mmHg 19%
    04:00 +16°C° 0 mm 1 mps 616 mmHg 19%
    05:00 +20°C° 0 mm 1 mps 617 mmHg 16%
    06:00 +22°C° 0 mm 1 mps 619 mmHg 13%
    07:00 +25°C° 0 mm 1 mps 620 mmHg 10%
    08:00 +27°C° 0 mm 1 mps 621 mmHg 9%
    09:00 +29°C° 0 mm 1 mps 621 mmHg 8%
    10:00 +31°C° 0 mm 1 mps 622 mmHg 7%
    11:00 +32°C° 0 mm 1 mps 622 mmHg 6%
    12:00 +35°C° 0 mm 2 mps 621 mmHg 5%
    13:00 +36°C° 0 mm 2 mps 621 mmHg 5%
    14:00 +36°C° 0 mm 3 mps 621 mmHg 5%
    15:00 +35°C° 0 mm 4 mps 620 mmHg 5%
    16:00 +35°C° 0 mm 5 mps 620 mmHg 5%
    17:00 +32°C° 0 mm 4 mps 619 mmHg 7%
    18:00 +27°C° 0 mm 3 mps 618 mmHg 9%
    19:00 +24°C° 0 mm 2 mps 618 mmHg 11%
    20:00 +23°C° 0 mm 2 mps 618 mmHg 13%
    21:00 +22°C° 0 mm 1 mps 618 mmHg 15%
    22:00 +20°C° 0 mm 1 mps 617 mmHg 17%
    23:00 +20°C° 0 mm 1 mps 617 mmHg 18%
    Show more